User: anonymous   Login
Location: Red Bud (historical)
(37.7759°N, 88.4053°W)
Time: 20:31:51
(UTC+00:00)
Language:

Nauka - Orbit

View from above orbital plane
View from above orbital plane
View from above satellite
View from above satellite

Ground track
Ground track

The orbit data is extracted from the following two-line orbital elements,

1 49044U 21066A   21295.54560529  .00004576  00000-0  91888-4 0  9991
2 49044  51.6429  72.9832 0004173 133.2717 350.9882 15.48768714308333
Epoch (UTC): 22 October 2021 13:05:40
Eccentricity: 0.0004173
inclination: 51.6429°
perigee height: 417 km
apogee height: 423 km
right ascension of ascending node: 72.9832°
argument of perigee: 133.2717°
revolutions per day: 15.48768714
mean anomaly at epoch: 350.9882°
orbit number at epoch: 30833

The dashed part of the orbit path shows where the satellite is in the earth's shadow,  

DLR